Weather in Staroboriskino

Russia / Orenburg Oblast     54°13′34″N   52°27′46″E
temp.,
°C
wind,
m/s
gust,
m/s
humid.,
%
clouds,
%
prec.,
mm/h
press.,
hPa
HPBL,
m
2 march, tue
tue223:00−22wsw2210049 0.0 102120
02:00−22sw231000 0.0 101925
05:00−20ssw4910036 0.0 1017162
08:00−17ssw61399100 0.1 1013273
11:00−12ssw81394100 0.6 1010435
14:00−8ssw91494100 0.8 1006596
17:00−5sw91495100 2.0 1003652
20:00−3sw71596100 1.1 1001683
3 march, wed
wed323:00−2wsw51096100 2.1 1000440
02:00−3w4996100 1.1 999367
05:00−5w589698 1.1 1000347
08:00−7wsw489697 0.1 1001204
11:00−6w589695 0.2 1002294
14:00−4wsw4795100 0.0 1002411
17:00−5w689198 0.3 1003742
20:00−7w499698 0.3 1003333
4 march, thu
thu423:00−8w5119594 0.6 1005399
02:00−9wnw5119494 0.2 1005377
05:00−13w489890 0.2 1007131
08:00−14wsw489896 0.1 1007158
11:00−10wsw599698 0.2 1008273
14:00−7sw61094100 0.2 1007468
17:00−6sw81294100 0.4 1006665
20:00−5ssw91594100 0.4 1004767
5 march, fri
fri523:00−3sw91795100 1.5 1002821
02:00−2sw111794100 0.8 1000977
05:00−2sw111792100 1.1 999910
08:00−3sw101695100 0.8 1001795
11:00−2wsw91496100 2.5 1003783
14:00−1w6999100 1.1 1004637
17:00−3wnw4896100 2.6 1006498
20:00−5w3392100 0.6 100776
6 march, sat
sat623:00−10nw229498 0.6 101021
02:00−11n1192100 0.0 101121
05:00−9e2290100 0.0 100967
08:00−8e6995100 2.2 1005270
11:00−1s51299100 5.8 1001512
14:000sw101798100 3.3 998841
17:00−1wsw81398100 6.1 998746
20:00−10nw61094100 0.7 1001345